Location: Bartlow
(52.0833°N, 0.3167°E)
Time: 09:38:57
(UTC+00:00)

Nadezhda 1 Rocket - Pass Details

Date: 26 September 2023
Orbit: 940 x 1005 km, 83.0° (Epoch: 09 December)

Event Time Altitude Azimuth Distance (km) Brightness Sun altitude
Rises 04:35:12 0° 350° (N) 3,740 7.1 -12.3°
Reaches altitude 10° 04:37:47 10° 353° (N) 2,780 6.5 -11.9°
Maximum altitude 04:44:09 67° 76° (ENE) 1,068 4.5 -11.0°
Drops below altitude 10° 04:50:22 10° 160° (SSE) 2,722 6.5 -10.0°
Sets 04:52:53 0° 163° (SSE) 3,656 7.1 -9.7°
